| time (UTC) | temp C | wind direction | speed KPH | gust KPH | rain 1hr cm | rain 24hr cm | rain mn cm | humidity % | barometer mb |
| 20260503231155 | 18 | 216 | 11.3 | 24.1 | 0.00 | 0.00 | 0.00 | 53 | 1003.3 |
| 20260503230645 | 18 | 211 | 11.3 | 20.9 | 0.00 | 0.00 | 0.00 | 53 | 1003.3 |
| 20260503230143 | 18 | 241 | 11.3 | 24.1 | 0.00 | 0.00 | 0.00 | 53 | 1003.4 |
| 20260503230122 | 17 | 181 | 12.9 | 24.1 | 0.00 | 0.00 | 0.00 | 53 | 1003.4 |
| 20260503225132 | 18 | 227 | 11.3 | 22.5 | 0.00 | 0.00 | 0.00 | 53 | 1003.4 |
| 20260503225113 | 18 | 231 | 11.3 | 22.5 | 0.00 | 0.00 | 0.00 | 54 | 1003.5 |
| 20260503224119 | 17 | 227 | 11.3 | 20.9 | 0.00 | 0.00 | 0.00 | 53 | 1003.5 |
| 20260503223614 | 17 | 196 | 11.3 | 24.1 | 0.00 | 0.00 | 0.00 | 54 | 1003.5 |
| 20260503223337 | 17 | 241 | 11.3 | 24.1 | 0.00 | 0.00 | 0.00 | 53 | 1003.8 |
| 20260503222615 | 17 | 217 | 9.7 | 20.9 | 0.00 | 0.00 | 0.00 | 54 | 1003.8 |
| 20260503222114 | 17 | 167 | 9.7 | 22.5 | 0.00 | 0.00 | 0.00 | 54 | 1003.8 |
| 20260503221834 | 17 | 199 | 11.3 | 22.5 | 0.00 | 0.00 | 0.00 | 54 | 1003.9 |
| 20260503221114 | 17 | 173 | 11.3 | 22.5 | 0.00 | 0.00 | 0.00 | 54 | 1003.9 |
| 20260503220614 | 17 | 188 | 11.3 | 20.9 | 0.00 | 0.00 | 0.00 | 53 | 1003.9 |
| 20260503220333 | 17 | 191 | 11.3 | 24.1 | 0.00 | 0.00 | 0.00 | 53 | 1003.9 |
| 20260503215614 | 17 | 172 | 11.3 | 24.1 | 0.00 | 0.00 | 0.00 | 52 | 1003.9 |
| 20260503215114 | 17 | 188 | 12.9 | 30.6 | 0.00 | 0.00 | 0.00 | 53 | 1003.9 |
| 20260503214614 | 17 | 235 | 14.5 | 32.2 | 0.00 | 0.00 | 0.00 | 52 | 1004.0 |
| 20260503214111 | 17 | 184 | 14.5 | 32.2 | 0.00 | 0.00 | 0.00 | 52 | 1004.0 |
| 20260503213610 | 17 | 239 | 16.1 | 40.2 | 0.00 | 0.00 | 0.00 | 50 | 1004.0 |
| 20260503213110 | 17 | 281 | 17.7 | 40.2 | 0.00 | 0.00 | 0.00 | 49 | 1004.4 |
| 20260503212611 | 17 | 223 | 16.1 | 37.0 | 0.00 | 0.00 | 0.00 | 50 | 1004.4 |
| 20260503212110 | 17 | 209 | 14.5 | 30.6 | 0.00 | 0.00 | 0.00 | 51 | 1004.4 |
| 20260503211610 | 17 | 188 | 16.1 | 30.6 | 0.00 | 0.00 | 0.00 | 53 | 1004.8 |
| 20260503211110 | 17 | 243 | 16.1 | 32.2 | 0.00 | 0.00 | 0.00 | 51 | 1004.8 |
| 20260503210604 | 16 | 255 | 14.5 | 32.2 | 0.00 | 0.00 | 0.00 | 51 | 1004.8 |
| 20260503210056 | 16 | 239 | 14.5 | 33.8 | 0.00 | 0.00 | 0.00 | 51 | 1005.0 |
| 20260503205549 | 16 | 201 | 16.1 | 33.8 | 0.00 | 0.00 | 0.00 | 50 | 1005.0 |
| 20260503205043 | 16 | 234 | 17.7 | 35.4 | 0.00 | 0.00 | 0.00 | 50 | 1005.0 |
| 20260503204537 | 16 | 213 | 16.1 | 35.4 | 0.00 | 0.00 | 0.00 | 49 | 1005.1 |
| 20260503204028 | 16 | 242 | 16.1 | 29.0 | 0.00 | 0.00 | 0.00 | 51 | 1005.1 |
| 20260503203525 | 16 | 293 | 16.1 | 27.4 | 0.00 | 0.00 | 0.00 | 51 | 1005.1 |
| 20260503203020 | 16 | 224 | 16.1 | 33.8 | 0.00 | 0.00 | 0.00 | 50 | 1005.5 |
| 20260503202736 | 17 | 215 | 19.3 | 41.8 | 0.00 | 0.00 | 0.00 | 50 | 1005.5 |
| 20260503202230 | 17 | 242 | 19.3 | 41.8 | 0.00 | 0.00 | 0.00 | 49 | 1005.5 |
| 20260503201502 | 17 | 128 | 17.7 | 33.8 | 0.00 | 0.00 | 0.00 | 51 | 1005.4 |
| 20260503201000 | 17 | 181 | 17.7 | 35.4 | 0.00 | 0.00 | 0.00 | 51 | 1005.4 |
| 20260503200503 | 17 | 186 | 19.3 | 35.4 | 0.00 | 0.00 | 0.00 | 49 | 1005.4 |
| 20260503195959 | 17 | 204 | 19.3 | 37.0 | 0.00 | 0.00 | 0.00 | 48 | 1005.5 |
| 20260503195501 | 17 | 217 | 16.1 | 37.0 | 0.00 | 0.00 | 0.00 | 47 | 1005.5 |
| 20260503195000 | 17 | 216 | 12.9 | 32.2 | 0.00 | 0.00 | 0.00 | 52 | 1005.5 |
| 20260503194502 | 17 | 180 | 14.5 | 32.2 | 0.00 | 0.00 | 0.00 | 52 | 1005.9 |
| 20260503193959 | 17 | 187 | 17.7 | 41.8 | 0.00 | 0.00 | 0.00 | 50 | 1005.9 |
| 20260503193513 | 17 | 172 | 17.7 | 41.8 | 0.00 | 0.00 | 0.00 | 49 | 1005.9 |
| 20260503193004 | 17 | 229 | 16.1 | 40.2 | 0.00 | 0.00 | 0.00 | 51 | 1006.0 |
| 20260503192456 | 16 | 219 | 19.3 | 40.2 | 0.00 | 0.00 | 0.00 | 53 | 1006.0 |
| 20260503191941 | 16 | 202 | 16.1 | 35.4 | 0.00 | 0.00 | 0.00 | 52 | 1006.5 |
| 20260503191429 | 16 | 200 | 14.5 | 38.6 | 0.00 | 0.00 | 0.00 | 55 | 1006.5 |
| 20260503190918 | 16 | 192 | 17.7 | 38.6 | 0.00 | 0.00 | 0.00 | 55 | 1006.5 |
| 20260503190407 | 16 | 234 | 16.1 | 37.0 | 0.00 | 0.00 | 0.00 | 54 | 1006.6 |
| 20260503185905 | 16 | 149 | 11.3 | 27.4 | 0.00 | 0.00 | 0.00 | 56 | 1006.6 |
| 20260503185400 | 15 | 227 | 9.7 | 25.7 | 0.00 | 0.00 | 0.00 | 60 | 1006.6 |
| 20260503184854 | 15 | 233 | 8.0 | 19.3 | 0.00 | 0.00 | 0.00 | 62 | 1007.1 |
| 20260503184348 | 14 | 117 | 8.0 | 20.9 | 0.00 | 0.00 | 0.00 | 65 | 1007.1 |
| 20260503183838 | 13 | 155 | 9.7 | 20.9 | 0.00 | 0.00 | 0.00 | 67 | 1007.1 |
| 20260503183559 | 13 | 121 | 8.0 | 20.9 | 0.00 | 0.00 | 0.00 | 68 | 1007.3 |
| 20260503182831 | 12 | 140 | 6.4 | 14.5 | 0.00 | 0.00 | 0.00 | 72 | 1007.3 |
| 20260503182325 | 11 | 129 | 8.0 | 17.7 | 0.00 | 0.00 | 0.00 | 74 | 1007.3 |
| 20260503182041 | 11 | 113 | 6.4 | 17.7 | 0.00 | 0.00 | 0.00 | 74 | 1008.0 |
| 20260503181311 | 10 | 144 | 4.8 | 12.9 | 0.00 | 0.00 | 0.00 | 75 | 1008.0 |
| 20260503180805 | 10 | 112 | 4.8 | 12.9 | 0.00 | 0.00 | 0.00 | 75 | 1008.0 |
| 20260503180259 | 10 | 115 | 4.8 | 12.9 | 0.00 | 0.00 | 0.00 | 73 | 1008.8 |
| 20260503175753 | 10 | 154 | 3.2 | 11.3 | 0.00 | 0.00 | 0.00 | 73 | 1008.8 |
| 20260503175249 | 10 | 184 | 4.8 | 14.5 | 0.00 | 0.00 | 0.00 | 73 | 1008.8 |
| 20260503174738 | 10 | 162 | 6.4 | 24.1 | 0.00 | 0.00 | 0.00 | 73 | 1009.7 |
| 20260503174236 | 10 | 198 | 8.0 | 24.1 | 0.00 | 0.00 | 0.00 | 73 | 1009.7 |
| 20260503173726 | 10 | 0 | 4.8 | 22.5 | 0.00 | 0.00 | 0.00 | 75 | 1009.7 |
| 20260503173224 | 10 | 213 | 6.4 | 11.3 | 0.00 | 0.00 | 0.00 | 76 | 1009.7 |
| 20260503172718 | 10 | 189 | 4.8 | 12.9 | 0.00 | 0.00 | 0.00 | 76 | 1009.7 |
| 20260503172439 | 10 | 219 | 4.8 | 14.5 | 0.00 | 0.00 | 0.00 | 78 | 1009.7 |
| 20260503171706 | 10 | 165 | 6.4 | 14.5 | 0.00 | 0.00 | 0.00 | 78 | 1009.9 |
| 20260503171200 | 10 | 246 | 6.4 | 12.9 | 0.00 | 0.00 | 0.00 | 78 | 1009.9 |
| 20260503170914 | 10 | 140 | 4.8 | 11.3 | 0.00 | 0.00 | 0.00 | 78 | 1009.9 |
| 20260503170151 | 9 | 180 | 4.8 | 12.9 | 0.00 | 0.00 | 0.00 | 79 | 1010.4 |
| 20260503160143 | 9 | 207 | 9.7 | 20.9 | 0.00 | 0.00 | 0.00 | 78 | 1011.4 |
| 20260503150642 | 11 | 229 | 14.5 | 33.8 | 0.00 | 0.00 | 0.00 | 63 | 1010.8 |
| 20260503150145 | 11 | 225 | 12.9 | 25.7 | 0.00 | 0.00 | 0.00 | 63 | 1010.5 |
| 20260503130938 | 8 | 233 | 9.7 | 22.5 | 0.00 | 0.00 | 0.00 | 69 | 1011.4 |
| 20260503130431 | 8 | 234 | 9.7 | 29.0 | 0.00 | 0.00 | 0.00 | 69 | 1011.5 |
| 20260503110707 | 6 | 226 | 11.3 | 20.9 | 0.00 | 0.00 | 0.00 | 69 | 1011.2 |
| 20260503110208 | 6 | 210 | 9.7 | 17.7 | 0.00 | 0.00 | 0.00 | 70 | 1011.3 |
| 20260503100126 | 6 | 225 | 8.0 | 14.5 | 0.00 | 0.00 | 0.00 | 70 | 1011.4 |
| 20260503081415 | 5 | 220 | 8.0 | 17.7 | 0.00 | 0.00 | 0.00 | 69 | 1011.8 |
| 20260503080910 | 5 | 227 | 9.7 | 17.7 | 0.00 | 0.00 | 0.00 | 68 | 1011.8 |
| 20260503080628 | 5 | 240 | 9.7 | 14.5 | 0.00 | 0.00 | 0.00 | 68 | 1011.7 |
| 20260503072857 | 6 | 217 | 8.0 | 16.1 | 0.00 | 0.00 | 0.00 | 67 | 1011.8 |
| 20260503072357 | 6 | 242 | 8.0 | 14.5 | 0.00 | 0.00 | 0.00 | 67 | 1011.8 |
| 20260503071856 | 6 | 221 | 8.0 | 14.5 | 0.00 | 0.00 | 0.00 | 67 | 1011.9 |
| 20260503071359 | 6 | 245 | 8.0 | 14.5 | 0.00 | 0.00 | 0.00 | 67 | 1011.9 |
| 20260503070901 | 6 | 259 | 9.7 | 16.1 | 0.00 | 0.00 | 0.00 | 67 | 1011.9 |
| 20260503070843 | 6 | 221 | 9.7 | 17.7 | 0.00 | 0.00 | 0.00 | 67 | 1012.0 |
| 20260503060217 | 6 | 234 | 6.4 | 11.3 | 0.00 | 0.00 | 0.00 | 67 | 1012.5 |
| 20260503054655 | 6 | 215 | 4.8 | 9.7 | 0.00 | 0.00 | 0.00 | 67 | 1012.6 |
| 20260503054153 | 6 | 209 | 4.8 | 9.7 | 0.00 | 0.00 | 0.00 | 67 | 1012.6 |
| 20260503053646 | 6 | 230 | 4.8 | 11.3 | 0.00 | 0.00 | 0.00 | 67 | 1012.6 |
| 20260503053136 | 6 | 223 | 4.8 | 11.3 | 0.00 | 0.00 | 0.00 | 67 | 1012.8 |
| 20260503052855 | 6 | 216 | 4.8 | 8.0 | 0.00 | 0.00 | 0.00 | 68 | 1012.8 |
| 20260503052125 | 6 | 215 | 4.8 | 8.0 | 0.00 | 0.00 | 0.00 | 68 | 1012.8 |
| 20260503051623 | 6 | 222 | 4.8 | 8.0 | 0.00 | 0.00 | 0.00 | 68 | 1012.9 |
| 20260503051122 | 6 | 246 | 4.8 | 8.0 | 0.00 | 0.00 | 0.00 | 69 | 1012.9 |
| 20260503050622 | 6 | 219 | 3.2 | 8.0 | 0.00 | 0.00 | 0.00 | 69 | 1012.9 |
| 20260503050122 | 6 | 217 | 3.2 | 6.4 | 0.00 | 0.00 | 0.00 | 69 | 1012.9 |
| 20260503045621 | 6 | 221 | 3.2 | 6.4 | 0.00 | 0.00 | 0.00 | 69 | 1012.9 |
| 20260503045118 | 6 | 228 | 3.2 | 8.0 | 0.00 | 0.00 | 0.00 | 69 | 1012.9 |
| 20260503044616 | 6 | 211 | 3.2 | 8.0 | 0.00 | 0.00 | 0.00 | 69 | 1012.9 |
| 20260503044116 | 6 | 209 | 3.2 | 6.4 | 0.00 | 0.00 | 0.00 | 69 | 1012.9 |
| 20260503043616 | 6 | 213 | 3.2 | 4.8 | 0.00 | 0.00 | 0.00 | 68 | 1012.9 |
| 20260503043114 | 6 | 213 | 3.2 | 6.4 | 0.00 | 0.00 | 0.00 | 68 | 1012.9 |
| 20260503042614 | 6 | 211 | 3.2 | 6.4 | 0.00 | 0.00 | 0.00 | 68 | 1012.9 |
| 20260503042114 | 6 | 204 | 3.2 | 6.4 | 0.00 | 0.00 | 0.00 | 67 | 1012.9 |
| 20260503041615 | 6 | 205 | 3.2 | 8.0 | 0.00 | 0.00 | 0.00 | 67 | 1012.9 |
| 20260503041332 | 6 | 183 | 3.2 | 8.0 | 0.00 | 0.00 | 0.00 | 67 | 1012.9 |
| 20260503040614 | 6 | 182 | 3.2 | 6.4 | 0.00 | 0.00 | 0.00 | 67 | 1012.9 |
| 20260503040114 | 6 | 217 | 3.2 | 6.4 | 0.00 | 0.00 | 0.00 | 67 | 1013.0 |
| 20260503035612 | 6 | 217 | 3.2 | 6.4 | 0.00 | 0.00 | 0.00 | 66 | 1013.0 |
| 20260503035110 | 7 | 211 | 3.2 | 8.0 | 0.00 | 0.00 | 0.00 | 66 | 1013.0 |
| 20260503034610 | 7 | 219 | 3.2 | 8.0 | 0.00 | 0.00 | 0.00 | 66 | 1013.0 |
| 20260503034108 | 7 | 218 | 3.2 | 6.4 | 0.00 | 0.00 | 0.00 | 66 | 1013.0 |
| 20260503033602 | 7 | 214 | 3.2 | 8.0 | 0.00 | 0.00 | 0.00 | 66 | 1013.0 |
| 20260503033056 | 7 | 215 | 3.2 | 8.0 | 0.00 | 0.00 | 0.00 | 65 | 1013.0 |
| 20260503032551 | 7 | 219 | 3.2 | 8.0 | 0.00 | 0.00 | 0.00 | 65 | 1013.0 |
| 20260503032044 | 7 | 190 | 3.2 | 8.0 | 0.00 | 0.00 | 0.00 | 65 | 1013.0 |
| 20260503031538 | 7 | 221 | 3.2 | 6.4 | 0.00 | 0.00 | 0.00 | 65 | 1013.2 |
| 20260503031033 | 7 | 199 | 3.2 | 6.4 | 0.00 | 0.00 | 0.00 | 65 | 1013.2 |
| 20260503030526 | 7 | 209 | 3.2 | 6.4 | 0.00 | 0.00 | 0.00 | 64 | 1013.2 |
| 20260503030239 | 7 | 212 | 3.2 | 6.4 | 0.00 | 0.00 | 0.00 | 64 | 1013.2 |
| 20260503025514 | 7 | 211 | 3.2 | 4.8 | 0.00 | 0.00 | 0.00 | 63 | 1013.2 |
| 20260503025009 | 8 | 204 | 3.2 | 6.4 | 0.00 | 0.00 | 0.00 | 63 | 1013.2 |
| 20260503024720 | 8 | 222 | 3.2 | 8.0 | 0.00 | 0.00 | 0.00 | 62 | 1013.1 |
| 20260503023956 | 8 | 211 | 3.2 | 8.0 | 0.00 | 0.00 | 0.00 | 62 | 1013.1 |
| 20260503023449 | 8 | 201 | 3.2 | 6.4 | 0.00 | 0.00 | 0.00 | 62 | 1013.2 |
| 20260503022943 | 8 | 207 | 3.2 | 6.4 | 0.00 | 0.00 | 0.00 | 61 | 1013.2 |
| 20260503022439 | 8 | 221 | 3.2 | 4.8 | 0.00 | 0.00 | 0.00 | 61 | 1013.2 |
| 20260503021934 | 8 | 221 | 1.6 | 4.8 | 0.00 | 0.00 | 0.00 | 61 | 1013.2 |
| 20260503021427 | 8 | 221 | 3.2 | 4.8 | 0.00 | 0.00 | 0.00 | 59 | 1013.2 |
| 20260503020920 | 8 | 207 | 3.2 | 6.4 | 0.00 | 0.00 | 0.00 | 59 | 1013.2 |
| 20260503020420 | 8 | 200 | 1.6 | 6.4 | 0.00 | 0.00 | 0.00 | 59 | 1013.0 |
| 20260503015919 | 8 | 215 | 1.6 | 3.2 | 0.00 | 0.00 | 0.00 | 58 | 1013.0 |
| 20260503015420 | 9 | 215 | 0.0 | 3.2 | 0.00 | 0.00 | 0.00 | 57 | 1013.0 |
| 20260503014919 | 9 | 215 | 0.0 | 0.0 | 0.00 | 0.00 | 0.00 | 56 | 1012.9 |
| 20260503014419 | 9 | 215 | 0.0 | 4.8 | 0.00 | 0.00 | 0.00 | 55 | 1012.9 |
| 20260503013919 | 10 | 215 | 1.6 | 4.8 | 0.00 | 0.00 | 0.00 | 55 | 1012.9 |
| 20260503013420 | 10 | 215 | 1.6 | 4.8 | 0.00 | 0.00 | 0.00 | 54 | 1012.9 |
| 20260503012919 | 10 | 214 | 3.2 | 4.8 | 0.00 | 0.00 | 0.00 | 53 | 1012.9 |
| 20260503012420 | 10 | 213 | 1.6 | 4.8 | 0.00 | 0.00 | 0.00 | 53 | 1012.9 |
| 20260503011914 | 10 | 213 | 1.6 | 4.8 | 0.00 | 0.00 | 0.00 | 52 | 1012.9 |
| 20260503011624 | 10 | 213 | 3.2 | 6.4 | 0.00 | 0.00 | 0.00 | 51 | 1012.9 |
| 20260503010851 | 10 | 213 | 3.2 | 6.4 | 0.00 | 0.00 | 0.00 | 50 | 1012.9 |
| 20260503010347 | 11 | 223 | 1.6 | 4.8 | 0.00 | 0.00 | 0.00 | 49 | 1012.9 |
| 20260503005841 | 11 | 230 | 1.6 | 4.8 | 0.00 | 0.00 | 0.00 | 49 | 1012.9 |
| 20260503005333 | 11 | 230 | 3.2 | 8.0 | 0.00 | 0.00 | 0.00 | 47 | 1012.9 |
| 20260503004828 | 11 | 222 | 4.8 | 11.3 | 0.00 | 0.00 | 0.00 | 46 | 1012.9 |
| 20260503004322 | 11 | 232 | 4.8 | 11.3 | 0.00 | 0.00 | 0.00 | 45 | 1012.9 |
| 20260503003816 | 11 | 239 | 4.8 | 11.3 | 0.00 | 0.00 | 0.00 | 45 | 1012.9 |
| 20260503003305 | 12 | 222 | 4.8 | 11.3 | 0.00 | 0.00 | 0.00 | 44 | 1012.9 |
| 20260503002803 | 12 | 238 | 4.8 | 11.3 | 0.00 | 0.00 | 0.00 | 44 | 1012.9 |
| 20260503002258 | 12 | 240 | 4.8 | 11.3 | 0.00 | 0.00 | 0.00 | 43 | 1012.9 |
| 20260503001752 | 12 | 250 | 4.8 | 9.7 | 0.00 | 0.00 | 0.00 | 43 | 1012.9 |
| 20260503001246 | 12 | 234 | 4.8 | 14.5 | 0.00 | 0.00 | 0.00 | 42 | 1012.9 |
| 20260503000736 | 12 | 285 | 6.4 | 14.5 | 0.00 | 0.00 | 0.00 | 42 | 1012.9 |
| 20260503000233 | 12 | 216 | 4.8 | 14.5 | 0.00 | 0.00 | 0.00 | 44 | 1012.9 |
| 20260502235727 | 12 | 227 | 4.8 | 9.7 | 0.00 | 0.00 | 0.00 | 43 | 1012.9 |
| 20260502235221 | 12 | 229 | 3.2 | 8.0 | 0.00 | 0.00 | 0.00 | 43 | 1012.9 |
| 20260502234715 | 12 | 237 | 4.8 | 11.3 | 0.00 | 0.00 | 0.00 | 43 | 1013.0 |
| 20260502234206 | 12 | 257 | 3.2 | 11.3 | 0.00 | 0.00 | 0.00 | 42 | 1013.0 |
| 20260502233703 | 12 | 233 | 1.6 | 6.4 | 0.00 | 0.00 | 0.00 | 44 | 1013.0 |
| 20260502233201 | 12 | 268 | 3.2 | 8.0 | 0.00 | 0.00 | 0.00 | 45 | 1013.1 |
| 20260502232912 | 12 | 271 | 4.8 | 12.9 | 0.00 | 0.00 | 0.00 | 44 | 1013.1 |
| 20260502232147 | 12 | 225 | 6.4 | 12.9 | 0.00 | 0.00 | 0.00 | 43 | 1013.1 |